This demonstration page uses our WeatherBlox Daily Observations layout. Learn more.

Left ArrowRight Arrow

Hourly Observations for June 1, 2021

Temp ( °F °C ) Dew Point ( °F °C ) Humidity (%) Winds ( mph kmh ) Pressure ( in mb ) Visibility ( mi km ) Precip ( " mm )
12:15 am 00:15 Partly Cloudy 57 14 52 11 82 82 N N/A 30.22 1023 10 16 N/A
12:35 am 00:35 Partly Cloudy 57 14 52 11 82 82 N N/A 30.22 1023 10 16 N/A
12:55 am 00:55 Partly Cloudy 57 14 54 12 88 88 N N/A 30.22 1023 10 16 N/A
1:15 am 01:15 Partly Cloudy 55 13 54 12 94 94 N N/A 30.22 1023 10 16 N/A
1:35 am 01:35 Partly Cloudy 55 13 55 13 100 100 N N/A 30.22 1023 10 16 N/A
1:55 am 01:55 Clear 55 13 55 13 100 100 N N/A 30.22 1023 10 16 N/A
2:15 am 02:15 Clear 55 13 55 13 100 100 N N/A 30.22 1023 10 16 N/A
2:35 am 02:35 Clear 55 13 55 13 100 100 N N/A 30.22 1023 10 16 N/A
2:55 am 02:55 Clear 55 13 54 12 94 94 N N/A 30.22 1023 10 16 N/A
3:15 am 03:15 Clear 54 12 54 12 100 100 N N/A 30.22 1023 10 16 N/A
3:35 am 03:35 Clear 55 13 55 13 100 100 N N/A 30.22 1023 10 16 N/A
3:55 am 03:55 Clear 55 13 55 13 100 100 N N/A 30.22 1023 10 16 N/A
4:15 am 04:15 Clear 54 12 54 12 100 100 N N/A 30.22 1023 10 16 N/A
4:35 am 04:35 Clear 54 12 54 12 100 100 N N/A 30.22 1023 10 16 N/A
4:55 am 04:55 Clear 54 12 54 12 100 100 N N/A 30.22 1023 10 16 N/A
5:15 am 05:15 Clear 54 12 54 12 100 100 N N/A 30.22 1023 10 16 N/A
5:35 am 05:35 Clear 54 12 54 12 100 100 N N/A 30.22 1023 10 16 N/A
5:55 am 05:55 Clear 54 12 54 12 100 100 N N/A 30.22 1023 10 16 N/A
6:15 am 06:15 Clear 55 13 55 13 100 100 N N/A 30.22 1023 10 16 N/A
6:35 am 06:35 Sunny 55 13 55 13 100 100 N N/A 30.23 1024 10 16 N/A
6:55 am 06:55 Mostly Cloudy 54 12 54 12 100 100 N N/A 30.23 1024 10 16 N/A
7:15 am 07:15 Partly Cloudy 55 13 55 13 100 100 N N/A 30.24 1024 4 6 N/A
7:35 am 07:35 Sunny 55 13 55 13 100 100 N N/A 30.24 1024 10 16 N/A
7:55 am 07:55 Partly Cloudy 57 14 57 14 100 100 N N/A 30.23 1024 10 16 N/A
8:15 am 08:15 Partly Cloudy 57 14 57 14 100 100 N N/A 30.23 1024 10 16 N/A
8:35 am 08:35 Partly Cloudy 59 15 57 14 94 94 N N/A 30.22 1024 10 16 N/A
8:55 am 08:55 Partly Cloudy 61 16 57 14 88 88 N N/A 30.23 1024 10 16 N/A
9:15 am 09:15 Mostly Cloudy 61 16 57 14 88 88 N N/A 30.23 1024 10 16 N/A
9:35 am 09:35 Partly Cloudy 63 17 57 14 83 83 N N/A 30.23 1024 10 16 N/A
9:55 am 09:55 Partly Cloudy 63 17 59 15 88 88 N N/A 30.23 1024 10 16 N/A
10:15 am 10:15 Partly Cloudy 63 17 57 14 83 83 N N/A 30.23 1024 10 16 N/A
10:35 am 10:35 Partly Cloudy 64 18 57 14 78 78 N N/A 30.22 1024 10 16 N/A
10:55 am 10:55 Sunny 66 19 57 14 73 73 N N/A 30.22 1023 10 16 N/A
11:15 am 11:15 Sunny 68 20 57 14 69 69 N N/A 30.22 1023 10 16 N/A
11:35 am 11:35 Sunny 72 22 55 13 57 57 N N/A 30.21 1023 10 16 N/A
11:55 am 11:55 Sunny 72 22 57 14 61 61 N N/A 30.21 1023 10 16 N/A
12:15 pm 12:15 Sunny 72 22 55 13 57 57 N N/A 30.20 1023 10 16 N/A
12:35 pm 12:35 Partly Cloudy 72 22 54 12 53 53 N N/A 30.20 1023 10 16 N/A
12:55 pm 12:55 Partly Cloudy 72 22 54 12 53 53 N N/A 30.20 1023 10 16 N/A
1:15 pm 13:15 Sunny 72 22 55 13 57 57 N N/A 30.19 1022 10 16 N/A
1:35 pm 13:35 Sunny 73 23 55 13 53 53 N N/A 30.18 1022 10 16 N/A
1:55 pm 13:55 Sunny 73 23 54 12 50 50 N N/A 30.18 1022 10 16 N/A
2:15 pm 14:15 Sunny 73 23 54 12 50 50 N N/A 30.18 1022 10 16 N/A
2:35 pm 14:35 Sunny 73 23 55 13 53 53 N N/A 30.18 1022 10 16 N/A
2:55 pm 14:55 Partly Cloudy 73 23 55 13 53 53 N N/A 30.17 1022 10 16 N/A
3:15 pm 15:15 Sunny 75 24 54 12 47 47 N N/A 30.16 1021 10 16 N/A
3:35 pm 15:35 Sunny 75 24 54 12 47 47 N N/A 30.15 1021 10 16 N/A
3:55 pm 15:55 Sunny 75 24 54 12 47 47 N N/A 30.16 1021 10 16 N/A
4:15 pm 16:15 Sunny 75 24 54 12 47 47 N N/A 30.16 1021 10 16 N/A
4:35 pm 16:35 Sunny 73 23 54 12 50 50 S 7 11 30.16 1021 10 16 N/A
4:55 pm 16:55 Sunny 75 24 55 13 50 50 SW 9 15 30.16 1021 10 16 N/A
5:15 pm 17:15 Sunny 73 23 55 13 53 53 N N/A 30.15 1021 10 16 N/A
5:35 pm 17:35 Sunny 73 23 55 13 53 53 N N/A 30.14 1021 10 16 N/A
5:55 pm 17:55 Sunny 75 24 54 12 47 47 N N/A 30.13 1020 10 16 N/A
6:15 pm 18:15 Sunny 73 23 54 12 50 50 N N/A 30.13 1020 10 16 N/A
6:35 pm 18:35 Sunny 73 23 54 12 50 50 N N/A 30.13 1020 10 16 N/A
6:55 pm 18:55 Sunny 73 23 54 12 50 50 N N/A 30.13 1020 10 16 N/A
7:15 pm 19:15 Sunny 72 22 54 12 53 53 N N/A 30.12 1020 10 16 N/A
7:35 pm 19:35 Sunny 72 22 54 12 53 53 N N/A 30.11 1020 10 16 N/A
7:55 pm 19:55 Partly Cloudy 72 22 54 12 53 53 N N/A 30.11 1020 10 16 N/A
8:15 pm 20:15 Mostly Cloudy 72 22 54 12 53 53 N N/A 30.11 1020 10 16 N/A
8:35 pm 20:35 Cloudy 72 22 55 13 57 57 N N/A 30.11 1020 10 16 N/A
8:55 pm 20:55 Cloudy 70 21 57 14 64 64 N N/A 30.12 1020 10 16 N/A
9:15 pm 21:15 Cloudy 68 20 57 14 69 69 S 9 15 30.12 1020 10 16 N/A
9:35 pm 21:35 Cloudy 68 20 57 14 69 69 N N/A 30.12 1020 10 16 N/A
9:55 pm 21:55 Cloudy 68 20 57 14 69 69 N N/A 30.13 1020 10 16 N/A
10:15 pm 22:15 Cloudy 66 19 59 15 78 78 S 5 7 30.14 1021 10 16 N/A
10:35 pm 22:35 Cloudy 66 19 61 16 83 83 S 10 17 30.15 1021 10 16 N/A
10:55 pm 22:55 Cloudy 66 19 61 16 83 83 S 8 13 30.15 1021 10 16 N/A
11:15 pm 23:15 Cloudy 64 18 63 17 94 94 S 8 13 30.14 1021 10 16 N/A
11:35 pm 23:35 Cloudy 64 18 63 17 94 94 S 6 9 30.13 1020 10 16 N/A
11:55 pm 23:55 Partly Cloudy 64 18 63 17 94 94 N N/A 30.14 1021 10 16 N/A

Powered by AerisWeather